Pittsburgh Allegheny Co., PA

4:12 PM EST on November 24, 2017 (GMT -0500)
Allegheny County

Weather History for KAGC - January, 2012

Change the Weather History Date:

Sunday, January 15, 2012

  Actual Average Record
Temperature  
Mean Temperature 21 °F -  
Max Temperature 25 °F 43 °F 57 °F (2007)
Min Temperature 17 °F 23 °F 3 °F (2009)
Degree Days  
Heating Degree Days 44    
Moisture  
Dew Point 11 °F    
Average Humidity 66    
Maximum Humidity 79    
Minimum Humidity 53    
Precipitation  
Precipitation 0.00 in - - ()
Sea Level Pressure  
Sea Level Pressure 30.41 in    
Wind  
Wind Speed 5 mph (West)    
Max Wind Speed 8 mph    
Max Gust Speed -    
Visibility 10 miles    
Events      
Averages and records for this station are not official NWS values.
T = Trace of Precipitation, MM = Missing Value Source: NWS Daily Summary

Daily Weather History Graph

Daily Weather History Graph

Search for Another Location

Airport or City:

Trip Planner

Search our weather history database for the weather conditions in past years. The results will help you decide how hot, cold, wet, or windy it might be!

Date:

Astronomy

Jan. 15, 2012 Rise Set
Actual Time 7:40 AM EST 5:17 PM EST
Civil Twilight 7:10 AM EST 5:47 PM EST
Nautical Twilight 6:37 AM EST 6:21 PM EST
Astronomical Twilight 6:04 AM EST 6:53 PM EST
Moon No Moon Rise 10:56 AM EST (1/15)
Length of Visible Light 10h 36m
Length of Day
9h 36m
Waning Gibbous, 58% of the Moon is Illuminated
Jan 15
Waning Gibbous
Jan 16
Last Quarter
Jan 23
New
Jan 30
First Quarter
Feb 7
Full

Hourly Weather History & Observations

Time (EST) Temp. Windchill Dew Point Humidity Pressure Visibility Wind Dir Wind Speed Gust Speed Precip Events Conditions
12:53 AM 18.0 °F 9.8 °F 10.0 °F 71% 30.23 in 10.0 mi WNW 5.8 mph - N/A   Overcast
1:53 AM 19.0 °F 12.3 °F 10.9 °F 71% 30.23 in 10.0 mi NNW 4.6 mph - N/A   Overcast
2:53 AM 19.0 °F 11.1 °F 10.9 °F 71% 30.26 in 10.0 mi NNW 5.8 mph - N/A   Overcast
3:27 AM 19.4 °F 11.5 °F 12.2 °F 74% 30.20 in 10.0 mi NNW 5.8 mph - N/A   Mostly Cloudy
3:53 AM 18.0 °F 11.1 °F 12.0 °F 78% 30.28 in 10.0 mi North 4.6 mph - N/A   Overcast
4:29 AM 17.6 °F 10.7 °F 12.2 °F 79% 30.22 in 10.0 mi North 4.6 mph - N/A   Scattered Clouds
4:53 AM 17.6 °F - 10.4 °F 73% 30.22 in 10.0 mi Calm Calm - N/A   Clear
5:53 AM 18.0 °F 12.7 °F 10.9 °F 74% 30.34 in 10.0 mi NW 3.5 mph - N/A   Clear
6:53 AM 17.1 °F 10.0 °F 10.9 °F 77% 30.38 in 10.0 mi WNW 4.6 mph - N/A   Clear
7:53 AM 17.1 °F 11.7 °F 10.9 °F 77% 30.41 in 9.0 mi NNW 3.5 mph - N/A   Clear
8:53 AM 18.0 °F - 10.0 °F 71% 30.44 in 10.0 mi Calm Calm - N/A   Clear
9:53 AM 19.0 °F - 12.0 °F 74% 30.47 in 10.0 mi Calm Calm - N/A   Clear
10:53 AM 19.9 °F 10.1 °F 10.9 °F 68% 30.51 in 10.0 mi WNW 8.1 mph - N/A   Mostly Cloudy
11:09 AM 23.0 °F - 12.2 °F 63% 30.42 in 10.0 mi Calm Calm - N/A   Scattered Clouds
11:38 AM 21.2 °F 16.4 °F 12.2 °F 68% 30.41 in 10.0 mi SSW 3.5 mph - N/A   Mostly Cloudy
11:53 AM 23.0 °F 17.0 °F 12.0 °F 63% 30.48 in 10.0 mi Variable 4.6 mph - N/A   Mostly Cloudy
12:53 PM 23.0 °F 13.9 °F 10.9 °F 60% 30.48 in 10.0 mi WNW 8.1 mph - N/A   Mostly Cloudy
1:08 PM 23.0 °F 17.0 °F 10.4 °F 59% 30.40 in 10.0 mi West 4.6 mph - N/A   Mostly Cloudy
1:36 PM 24.8 °F 17.9 °F 12.2 °F 59% 30.40 in 10.0 mi West 5.8 mph - N/A   Overcast
1:53 PM 25.0 °F 20.7 °F 10.9 °F 55% 30.48 in 10.0 mi WNW 3.5 mph - N/A   Overcast
2:08 PM 24.8 °F 17.9 °F 10.4 °F 54% 30.40 in 10.0 mi Variable 5.8 mph - N/A   Overcast
2:53 PM 25.0 °F 20.7 °F 10.0 °F 53% 30.48 in 10.0 mi Variable 3.5 mph - N/A   Overcast
3:53 PM 24.1 °F 16.0 °F 10.9 °F 57% 30.49 in 10.0 mi West 6.9 mph - N/A   Overcast
4:53 PM 24.1 °F 17.0 °F 10.0 °F 55% 30.51 in 10.0 mi SW 5.8 mph - N/A   Overcast
5:53 PM 23.0 °F 18.4 °F 10.0 °F 58% 30.52 in 10.0 mi South 3.5 mph - N/A   Overcast
6:53 PM 23.0 °F 17.0 °F 12.0 °F 63% 30.53 in 10.0 mi SSW 4.6 mph - N/A   Overcast
7:53 PM 23.0 °F 15.8 °F 12.0 °F 63% 30.54 in 10.0 mi SSW 5.8 mph - N/A   Overcast
8:53 PM 21.9 °F 15.7 °F 12.0 °F 66% 30.53 in 10.0 mi South 4.6 mph - N/A   Clear
9:53 PM 21.0 °F 14.6 °F 12.0 °F 68% 30.54 in 10.0 mi SSE 4.6 mph - N/A   Clear
10:53 PM 21.0 °F 16.2 °F 12.0 °F 68% 30.52 in 10.0 mi SE 3.5 mph - N/A   Clear
11:53 PM 19.9 °F 12.1 °F 12.0 °F 71% 30.50 in 10.0 mi SSE 5.8 mph - N/A   Clear